Easton, MD

6:37 PM EST on November 18, 2019 (GMT -0500)
Easton / Newnam

Weather History for KESN - September, 2019

Change the Weather History Date:

Thursday, September 5, 2019

  Actual Average Record
Temperature  
Mean Temperature 74 °F -  
Max Temperature 79 °F 84 °F 94 °F (1961)
Min Temperature 70 °F 63 °F 49 °F (1950)
Cooling Degree Days 10    
Growing Degree Days 24 (Base 50)    
Moisture  
Dew Point 67 °F    
Average Humidity 80    
Maximum Humidity 91    
Minimum Humidity 65    
Precipitation  
Precipitation 0.00 in - - ()
Sea Level Pressure  
Sea Level Pressure 30.03 in    
Wind  
Wind Speed 8 mph (NNE)    
Max Wind Speed 13 mph    
Max Gust Speed 17 mph    
Visibility 10 miles    
Events Rain    
Averages and records for this station are not official NWS values.
T = Trace of Precipitation, MM = Missing Value Source: NWS Daily Summary

Daily Weather History Graph

Daily Weather History Graph

Search for Another Location

Airport or City:

Astronomy

Sep. 05, 2019 Rise Set
Actual Time 6:36 AM EDT 7:28 PM EDT
Civil Twilight 6:09 AM EDT 7:55 PM EDT
Nautical Twilight 5:37 AM EDT 8:27 PM EDT
Astronomical Twilight 5:04 AM EDT 9:00 PM EDT
Moon 1:36 PM EDT (9/5) 11:47 PM EDT (9/5)
Length of Visible Light 13h 46m
Length of Day
12h 52m
Waxing Crescent, 45% of the Moon is Illuminated
Sep 5
Waxing Crescent
Sep 5
First Quarter
Sep 14
Full
Sep 21
Last Quarter
Sep 28
New

Hourly Weather History & Observations

Time (EDT) Temp. Dew Point Humidity Pressure Visibility Wind Dir Wind Speed Gust Speed Precip Events Conditions
12:19 AM 79.7 °F 72.1 °F 78% 30.02 in 10.0 mi NW 10.4 mph - N/A   Mostly Cloudy
12:39 AM 76.6 °F 73.4 °F 90% 30.02 in 10.0 mi NNE 10.4 mph 17.3 mph N/A Rain Light Rain
12:59 AM 76.5 °F 70.0 °F 80% 30.02 in 10.0 mi NNE 10.4 mph - N/A   Mostly Cloudy
1:19 AM 74.7 °F 68.7 °F 82% 30.01 in 10.0 mi NNE 10.4 mph - N/A   Scattered Clouds
1:39 AM 74.5 °F 67.1 °F 78% 30.01 in 10.0 mi NE 3.5 mph - N/A   Clear
1:59 AM 74.3 °F 68.0 °F 81% 30.00 in 10.0 mi Calm Calm - N/A   Clear
2:39 AM 74.5 °F 68.9 °F 83% 30.01 in 10.0 mi NW 3.5 mph - N/A   Scattered Clouds
2:59 AM 74.1 °F 69.1 °F 84% 30.00 in 10.0 mi North 4.6 mph - N/A   Scattered Clouds
3:40 AM 72.7 °F 69.4 °F 90% 30.02 in 10.0 mi Calm Calm - N/A   Scattered Clouds
4:00 AM 72.7 °F 69.8 °F 91% 30.02 in 10.0 mi Calm Calm - N/A   Scattered Clouds
4:20 AM 72.9 °F 69.4 °F 89% 30.02 in 10.0 mi North 3.5 mph - N/A   Clear
4:40 AM 72.9 °F 69.8 °F 90% 30.01 in 10.0 mi North 6.9 mph - N/A   Clear
5:00 AM 73.4 °F 69.8 °F 88% 30.02 in 10.0 mi NE 9.2 mph - N/A   Clear
5:20 AM 73.8 °F 67.3 °F 80% 30.03 in 10.0 mi NE 12.7 mph - N/A   Scattered Clouds
5:40 AM 73.4 °F 65.3 °F 76% 30.04 in 10.0 mi NE 10.4 mph - N/A   Scattered Clouds
5:59 AM 71.6 °F 66.2 °F 83% 30.05 in 10.0 mi Calm Calm - N/A   Scattered Clouds
6:50 AM 71.6 °F 64.4 °F 78% 30.06 in 10.0 mi NNE 10.4 mph - N/A   Scattered Clouds
7:50 AM 71.6 °F 64.4 °F 78% 30.07 in 10.0 mi North 10.4 mph - N/A   Mostly Cloudy
8:50 AM 71.6 °F 64.4 °F 78% 30.09 in 10.0 mi NNE 8.1 mph - N/A   Mostly Cloudy
9:50 AM 73.4 °F 64.4 °F 73% 30.08 in 10.0 mi NNE 11.5 mph - N/A   Overcast
10:57 AM 75.2 °F 66.2 °F 73% 30.09 in 10.0 mi NE 9.2 mph - N/A   Overcast
12:50 PM 75.2 °F 66.2 °F 73% 30.08 in 10.0 mi NE 10.4 mph - N/A   Overcast
1:50 PM 75.2 °F 66.2 °F 73% 30.08 in 10.0 mi NNE 10.4 mph - N/A   Overcast
2:50 PM 77.0 °F 66.2 °F 69% 30.06 in 10.0 mi NE 10.4 mph - N/A   Overcast
3:45 PM 78.8 °F 66.2 °F 65% 30.04 in 10.0 mi NNE 11.5 mph - N/A   Overcast
4:52 PM 77.0 °F 66.2 °F 69% 30.04 in 10.0 mi ENE 10.4 mph - N/A   Overcast
5:54 PM 75.2 °F 66.2 °F 73% 30.04 in 10.0 mi NE 5.8 mph - N/A   Overcast
6:46 PM 75.2 °F 64.4 °F 69% 30.03 in 10.0 mi ENE 6.9 mph - N/A   Overcast
7:50 PM 73.4 °F 66.2 °F 78% 30.03 in 10.0 mi NE 5.8 mph - N/A   Mostly Cloudy
8:47 PM 71.6 °F 66.2 °F 83% 30.04 in 10.0 mi NE 5.8 mph - N/A   Scattered Clouds
9:48 PM 71.6 °F 66.2 °F 83% 30.03 in 10.0 mi ENE 4.6 mph - N/A   Clear
10:20 PM 71.1 °F 66.4 °F 85% 30.03 in 10.0 mi NE 8.1 mph - N/A   Clear
10:40 PM 70.9 °F 66.6 °F 86% 30.02 in 10.0 mi ENE 8.1 mph - N/A   Scattered Clouds
11:00 PM 70.9 °F 66.4 °F 86% 30.01 in 10.0 mi ENE 9.2 mph - N/A   Mostly Cloudy
11:20 PM 70.9 °F 66.2 °F 85% 30.00 in 10.0 mi NNE 10.4 mph - N/A   Mostly Cloudy
11:40 PM 70.3 °F 65.8 °F 86% 29.99 in 10.0 mi NNE 8.1 mph - N/A   Scattered Clouds